Location: La Fredeussais
(48.1780°N, 1.3980°W)
Time: 16:41:45
(UTC+00:00)

Ariane Rocket - Pass Details

Date: 09 May 2021
Orbit: 760 x 769 km, 98.7° (Epoch: 24 June)

Event Time Altitude Azimuth Distance (km) Brightness Sun altitude
Exits shadow 20:25:09 - 174° (S) 3,233 5.8 -8.4°
Rises 20:25:12 0° 174° (S) 3,209 5.8 -8.4°
Reaches altitude 10° 20:27:31 10° 177° (S) 2,289 5.1 -8.7°
Maximum altitude 20:32:30 61° 258° (WSW) 863 3.5 -9.4°
Drops below altitude 10° 20:37:33 10° 339° (NNW) 2,310 6.6 -10.0°
Sets 20:39:54 0° 343° (NNW) 3,242 7.3 -10.3°
